Regional Weather Roundup
Issued by NWS

Home | Current Version | Previous Version | Graphics & Text | Print | Product List | Glossary On
Versions: 1 2 3 4 5 6 7 8 9 10 11 12 13 14 15 16 17 18 19 20 21 22 23 24 25 26 27
000
ASUS45 KSLC 311610
RWRUT

UTAH REGIONAL WEATHER ROUNDUP
NATIONAL WEATHER SERVICE SALT LAKE CITY UT
1000 AM MDT WED AUG 31 2016

UTZ001>011-023>025-311700-

NORTHERN UTAH

CITY           SKY/WX    TMP DP  RH WIND       PRES   REMARKS
BRIGHAM CITY     N/A     78  34  19 CALM      30.09S
DUGWAY         MOSUNNY   86  33  14 S15G23    30.09S
HILL AFB       SUNNY     76  35  22 E13       30.12R
LOGAN          SUNNY     72  39  30 CALM      30.10S
OGDEN          SUNNY     79  38  22 SE7       30.09R
PROVO AIRPORT  MOSUNNY  N/A N/A N/A SE9       30.13S
SALT LAKE CITY MOSUNNY   84  37  18 S10       30.07R
VERNAL         SUNNY     70  33  25 S3        30.23S
WENDOVER       MOSUNNY   73  30  20 NE7       30.07S
HEBER CITY     SUNNY     64  37  36 CALM      30.21S
WEST JORDAN    SUNNY     81  37  21 S17       30.11R

$$

UTZ012>022-026-027-311700-

SOUTHERN/CENTRAL UTAH

CITY           SKY/WX    TMP DP  RH WIND       PRES   REMARKS
BLANDING       SUNNY     71  49  45 SE12      30.38S
BRYCE CANYON   SUNNY     68  38  33 CALM      30.39S
CEDAR CITY     SUNNY     77  36  22 CALM      30.20R
DELTA          SUNNY     79  34  19 SE5       30.14S
MILFORD        SUNNY     82  34  17 SW14      30.15S
MOAB/CYNLANDS  SUNNY     80  44  27 SE8       30.17S
PRICE          SUNNY     75  34  22 E8        30.27S
ST GEORGE      SUNNY     81  45  28 CALM      30.05S

$$

REGIONAL REPORTS     COLORADO/ARIZONA

CITY           SKY/WX    TMP DP  RH WIND       PRES   REMARKS
CRAIG, CO      SUNNY     72  40  31 NE10      30.30S
GRAND JUNCTION SUNNY     75  44  33 SE8       30.22S
RIFLE          SUNNY     69  46  43 CALM      30.28F
MONTROSE       SUNNY     71  47  42 VRB5      30.30F
CORTEZ         PTSUNNY   70  53  54 CALM      30.32S
PAGE, AZ       SUNNY     77  38  24 NW6       30.15S
GRAND CANYON   SUNNY     73  45  36 S9        30.32R
KINGMAN        MOSUNNY   85  51  31 CALM      30.04S
FLAGSTAFF      SUNNY     68  48  48 CALM      30.35R

$$

REGIONAL REPORTS    NEVADA/IDAHO/WYOMING

CITY           SKY/WX    TMP DP  RH WIND       PRES   REMARKS
LAS VEGAS, NV  MOSUNNY   91  38  15 E5        29.91R
ELY            SUNNY     77  35  21 S12       30.21S
ELKO           MOSUNNY   70  29  21 CALM      30.09S
POCATELLO, ID  CLOUDY    70  39  32 NE7       30.05S
BURLEY         MOSUNNY   71  42  35 NE5       30.01S
EVANSTON, WY   SUNNY     70  26  19 E8        30.31S
ROCK SPRINGS   SUNNY     67  38  34 VRB3      30.31S

$$




USA.gov is the U.S. government's official web portal to all federal, state and local government web resources and services.